Weather History for Rogers, AR

Change the Weather History Date:

Thursday, June 27, 2013

  Actual Average Record
Temperature  
Mean Temperature 84 °F -  
Max Temperature 96 °F 81 °F 102 °F (2012)
Min Temperature 73 °F 64 °F 53 °F (2003)
Cooling Degree Days 20    
Growing Degree Days 34 (Base 50)    
Moisture  
Dew Point 70 °F    
Average Humidity 61    
Maximum Humidity 90    
Minimum Humidity 38    
Precipitation  
Precipitation 0.00 in - - ()
Sea Level Pressure  
Sea Level Pressure 29.93 in    
Wind  
Wind Speed 6 mph (SW)    
Max Wind Speed 10 mph    
Max Gust Speed -    
Visibility 10 miles    
Events      
Averages and records for this station are not official NWS values.
T = Trace of Precipitation, MM = Missing Value Source: NWS Daily Summary

Daily Weather History Graph

Daily Weather History Graph

Search for Another Location

Airport:

Trip Planner

Search our weather history database for the weather conditions in past years. The results will help you decide how hot, cold, wet, or windy it might be!

Date:

Astronomy

Jun. 27, 2013 Rise Set
Actual Time 6:00 AM CDT 8:38 PM CDT
Civil Twilight 5:30 AM CDT 9:08 PM CDT
Nautical Twilight 4:52 AM CDT 9:46 PM CDT
Astronomical Twilight 4:10 AM CDT 10:28 PM CDT
Moon 11:45 PM CDT (6/27) 10:53 AM CDT (6/27)
Length of Visible Light 15h 38m
Length of Day
14h 37m
Waning Gibbous, 76% of the Moon is Illuminated
Jun 27
Waning Gibbous
Jun 29
Last Quarter
Jul 8
New
Jul 15
First Quarter
Jul 22
Full

Hourly Weather History & Observations

Time (CDT) Temp. Heat Index Dew Point Humidity Pressure Visibility Wind Dir Wind Speed Gust Speed Precip Events Conditions
12:57 AM 79.0 °F - 73.0 °F 82% 29.93 in 10.0 mi SW 4.6 mph - N/A   Clear
1:57 AM 78.1 °F - 73.0 °F 84% 29.92 in 10.0 mi SSW 4.6 mph - N/A   Clear
2:57 AM 78.1 °F - 72.0 °F 81% 29.92 in 10.0 mi SSW 6.9 mph - N/A   Clear
3:57 AM 75.9 °F - 72.0 °F 87% 29.93 in 10.0 mi South 6.9 mph - N/A   Clear
4:57 AM 75.0 °F - 70.0 °F 84% 29.94 in 10.0 mi SSW 5.8 mph - N/A   Clear
5:57 AM 73.0 °F - 70.0 °F 90% 29.96 in 10.0 mi Calm Calm - N/A   Clear
6:57 AM 77.0 °F - 70.0 °F 79% 29.96 in 10.0 mi South 3.5 mph - N/A   Clear
7:57 AM 82.0 °F 85.9 °F 70.0 °F 67% 29.96 in 10.0 mi SSW 5.8 mph - N/A   Clear
8:57 AM 86.0 °F 90.7 °F 70.0 °F 59% 29.96 in 10.0 mi SW 6.9 mph - N/A   Clear
9:57 AM 87.1 °F 92.0 °F 70.0 °F 57% 29.97 in 10.0 mi WSW 6.9 mph - N/A   Clear
10:57 AM 90.0 °F 95.4 °F 70.0 °F 52% 29.98 in 10.0 mi WNW 6.9 mph - N/A   Clear
11:57 AM 91.0 °F 95.6 °F 69.1 °F 48% 29.97 in 10.0 mi Variable 3.5 mph - N/A   Clear
12:57 PM 93.0 °F 97.9 °F 69.1 °F 45% 29.96 in 10.0 mi West 6.9 mph - N/A   Clear
1:57 PM 93.9 °F 99.1 °F 69.1 °F 44% 29.95 in 10.0 mi NNW 6.9 mph - N/A   Clear
2:57 PM 95.0 °F 99.0 °F 66.9 °F 40% 29.93 in 10.0 mi NW 4.6 mph - N/A   Clear
3:57 PM 96.1 °F 102.9 °F 70.0 °F 43% 29.93 in 10.0 mi WNW 8.1 mph - N/A   Clear
4:57 PM 96.1 °F 99.9 °F 66.9 °F 38% 29.91 in 10.0 mi Variable 4.6 mph - N/A   Clear
5:57 PM 95.0 °F 100.7 °F 69.1 °F 43% 29.89 in 10.0 mi SSW 8.1 mph - N/A   Clear
6:57 PM 95.0 °F 100.7 °F 69.1 °F 43% 29.86 in 10.0 mi SSW 8.1 mph - N/A   Clear
7:57 PM 89.1 °F 94.1 °F 70.0 °F 53% 29.86 in 10.0 mi SSW 5.8 mph - N/A   Clear
8:57 PM 87.1 °F 92.0 °F 70.0 °F 57% 29.88 in 10.0 mi SSW 6.9 mph - N/A   Clear
9:57 PM 87.1 °F 93.6 °F 72.0 °F 61% 29.90 in 10.0 mi SSW 10.4 mph - N/A   Clear
10:57 PM 86.0 °F 92.2 °F 72.0 °F 63% 29.90 in 10.0 mi SW 9.2 mph - N/A   Clear
11:57 PM 84.0 °F 89.6 °F 72.0 °F 67% 29.88 in 10.0 mi SSW 10.4 mph - N/A   Clear